Location: ??????
(38.1303°N, 24.0039°E)
Time: 16:03:43
(UTC+00:00)

Cosmos 1933 - Pass Details

Date: 20 June 2021
Orbit: 547 x 562 km, 82.5° (Epoch: 27 July)

Event Time Altitude Azimuth Distance (km) Brightness Sun altitude
Rises 01:04:08 0° 346° (NNW) 2,757 7.5 -18.1°
Reaches altitude 10° 01:06:22 10° 341° (NNW) 1,858 6.4 -17.8°
Maximum altitude 01:10:18 47° 267° (W) 747 3.7 -17.3°
Enters shadow 01:11:24 37° 222° (SW) 887 3.8 -17.2°
